Data No, UTC Date,UTC Time,Latitude,Longitude,Course(deg),Temp(degC),Sal(psu)
340,2018/11/21,11:57,35-35.63N,139-47.18E,194,18.597,30.7296
341,2018/11/21,11:58,35-35.47N,139-47.17E,176,18.614,30.7443
342,2018/11/21,11:59,35-35.32N,139-47.24E,154,18.627,30.778
343,2018/11/21,12:00,35-35.16N,139-47.38E,138,18.654,30.8314
344,2018/11/21,12:01,35-35.00N,139-47.56E,137,18.663,30.822
345,2018/11/21,12:02,35-34.83N,139-47.75E,137,18.659,31.1687
346,2018/11/21,12:03,35-34.65N,139-47.95E,137,18.54,31.2904
347,2018/11/21,12:04,35-34.48N,139-48.15E,133,18.518,31.2971
348,2018/11/21,12:05,35-34.33N,139-48.39E,126,18.464,31.1943
349,2018/11/21,12:06,35-34.19N,139-48.62E,127,18.482,31.1088
350,2018/11/21,12:07,35-34.04N,139-48.86E,126,18.484,31.2477
351,2018/11/21,12:08,35-33.90N,139-49.10E,126,18.449,31.3863
352,2018/11/21,12:09,35-33.75N,139-49.34E,126,18.348,31.358
353,2018/11/21,12:10,35-33.60N,139-49.58E,127,18.216,31.2813
354,2018/11/21,12:11,35-33.45N,139-49.82E,127,18.023,31.2136
355,2018/11/21,12:12,35-33.30N,139-50.07E,126,17.965,31.0346
356,2018/11/21,12:13,35-33.14N,139-50.33E,126,17.979,30.7827
357,2018/11/21,12:14,35-32.94N,139-50.59E,139,17.968,30.7055
358,2018/11/21,12:15,35-32.68N,139-50.72E,165,17.667,30.7209
359,2018/11/21,12:16,35-32.39N,139-50.79E,168,17.822,30.6192
360,2018/11/21,12:17,35-32.10N,139-50.86E,168,17.988,30.8991
361,2018/11/21,12:18,35-31.79N,139-50.93E,169,17.984,31.1831
362,2018/11/21,12:19,35-31.48N,139-51.01E,169,17.998,31.426
363,2018/11/21,12:20,35-31.17N,139-51.08E,169,18.071,31.5287
364,2018/11/21,12:21,35-30.86N,139-51.15E,169,17.981,31.6194
365,2018/11/21,12:22,35-30.55N,139-51.22E,169,18.054,31.735
366,2018/11/21,12:23,35-30.23N,139-51.29E,168,18.036,31.786
367,2018/11/21,12:24,35-29.91N,139-51.34E,179,17.985,31.8143
368,2018/11/21,12:25,35-29.62N,139-51.21E,209,17.836,31.8735
369,2018/11/21,12:26,35-29.36N,139-50.99E,214,18.006,31.6235
370,2018/11/21,12:27,35-29.10N,139-50.77E,214,18.036,31.6361
371,2018/11/21,12:28,35-28.84N,139-50.55E,214,17.938,31.866
372,2018/11/21,12:29,35-28.59N,139-50.31E,222,17.903,31.9603
373,2018/11/21,12:30,35-28.37N,139-50.00E,230,17.875,31.888
374,2018/11/21,12:31,35-28.18N,139-49.69E,234,17.923,31.5751
375,2018/11/21,12:32,35-27.99N,139-49.37E,234,18.113,31.3435
376,2018/11/21,12:33,35-27.81N,139-49.05E,234,18.171,31.3635
377,2018/11/21,12:34,35-27.62N,139-48.73E,234,18.074,31.4462
378,2018/11/21,12:35,35-27.43N,139-48.39E,235,18.002,31.4451
379,2018/11/21,12:36,35-27.25N,139-48.07E,235,17.881,31.3828
380,2018/11/21,12:37,35-27.06N,139-47.75E,235,17.951,31.416
381,2018/11/21,12:38,35-26.88N,139-47.42E,235,17.961,31.5313
382,2018/11/21,12:39,35-26.70N,139-47.10E,235,18.033,31.6841
383,2018/11/21,12:40,35-26.52N,139-46.77E,235,18.131,31.8145
384,2018/11/21,12:41,35-26.33N,139-46.44E,236,18.109,31.9089
385,2018/11/21,12:42,35-26.16N,139-46.12E,235,18.142,31.9465
386,2018/11/21,12:43,35-25.98N,139-45.79E,235,18.193,31.9674
387,2018/11/21,12:44,35-25.79N,139-45.48E,234,18.19,31.9863
388,2018/11/21,12:45,35-25.60N,139-45.15E,234,18.109,32.0045
389,2018/11/21,12:46,35-25.42N,139-44.84E,234,18.017,31.9757
390,2018/11/21,12:47,35-25.23N,139-44.52E,235,18.078,31.9596
391,2018/11/21,12:48,35-25.06N,139-44.19E,236,17.954,31.9691
392,2018/11/21,12:49,35-24.88N,139-43.86E,236,18.033,31.9718
393,2018/11/21,12:50,35-24.70N,139-43.53E,236,17.968,31.9237
394,2018/11/21,12:51,35-24.51N,139-43.22E,228,18.036,31.9033
395,2018/11/21,12:52,35-24.22N,139-43.00E,207,17.965,31.8826
396,2018/11/21,12:53,35-23.95N,139-42.83E,206,18.043,31.8477
397,2018/11/21,12:54,35-23.71N,139-42.69E,206,18.009,31.862
398,2018/11/21,12:55,35-23.43N,139-42.52E,206,18.132,31.8546
399,2018/11/21,12:56,35-23.14N,139-42.35E,201,18.076,31.9318
400,2018/11/21,12:57,35-22.84N,139-42.32E,179,18.047,31.9603
401,2018/11/21,12:58,35-22.54N,139-42.33E,178,18.109,31.9155
402,2018/11/21,12:59,35-22.22N,139-42.34E,178,18.161,31.958
403,2018/11/21,13:00,35-21.90N,139-42.35E,178,18.157,31.9892
404,2018/11/21,13:01,35-21.59N,139-42.36E,178,18.182,31.9876
405,2018/11/21,13:02,35-21.27N,139-42.37E,178,18.12,32.0298
406,2018/11/21,13:03,35-20.96N,139-42.38E,178,18.049,31.9979
407,2018/11/21,13:04,35-20.63N,139-42.39E,178,18.057,31.9665
408,2018/11/21,13:05,35-20.34N,139-42.40E,178,18.076,31.9378
409,2018/11/21,13:06,35-20.06N,139-42.41E,174,18.178,32.0046
410,2018/11/21,13:07,35-19.86N,139-42.51E,148,18.216,32.1072
411,2018/11/21,13:08,35-19.68N,139-42.66E,145,18.289,32.2085
412,2018/11/21,13:09,35-19.50N,139-42.81E,145,18.279,32.3018
413,2018/11/21,13:10,35-19.33N,139-42.95E,145,18.354,32.3605
414,2018/11/21,13:11,35-19.15N,139-43.10E,145,18.334,32.4051
415,2018/11/21,13:12,35-18.98N,139-43.25E,143,18.449,32.4466
416,2018/11/21,13:13,35-18.80N,139-43.40E,143,18.478,32.5056
417,2018/11/21,13:14,35-18.63N,139-43.56E,143,18.495,32.524
418,2018/11/21,13:15,35-18.45N,139-43.72E,143,18.589,32.5974
419,2018/11/21,13:16,35-18.27N,139-43.88E,142,18.794,32.6575
420,2018/11/21,13:17,35-18.09N,139-44.04E,142,18.922,32.846
421,2018/11/21,13:18,35-17.92N,139-44.21E,142,19.006,33.0177
422,2018/11/21,13:19,35-17.74N,139-44.37E,142,18.999,33.1107
423,2018/11/21,13:20,35-17.56N,139-44.54E,142,18.994,33.1192
424,2018/11/21,13:21,35-17.38N,139-44.71E,143,18.968,33.1188
425,2018/11/21,13:22,35-17.20N,139-44.87E,142,18.954,33.0682
426,2018/11/21,13:23,35-17.03N,139-45.03E,142,18.999,33.0505
427,2018/11/21,13:24,35-16.85N,139-45.21E,141,18.968,33.0566
428,2018/11/21,13:25,35-16.68N,139-45.37E,141,19.029,33.0964
429,2018/11/21,13:26,35-16.50N,139-45.54E,141,18.912,33.1024
430,2018/11/21,13:27,35-16.32N,139-45.70E,147,18.863,33.0667
431,2018/11/21,13:28,35-16.13N,139-45.84E,151,18.798,33.0188
432,2018/11/21,13:29,35-15.92N,139-45.96E,153,18.714,32.9564
433,2018/11/21,13:30,35-15.72N,139-46.08E,153,18.612,32.8468
434,2018/11/21,13:31,35-15.51N,139-46.17E,166,18.424,32.7684
435,2018/11/21,13:32,35-15.28N,139-46.20E,176,18.356,32.6738
436,2018/11/21,13:33,35-15.05N,139-46.21E,177,18.421,32.5307
437,2018/11/21,13:34,35-14.83N,139-46.23E,177,18.487,32.5393
438,2018/11/21,13:35,35-14.60N,139-46.23E,178,18.495,32.5791
439,2018/11/21,13:36,35-14.38N,139-46.24E,178,18.598,32.591
440,2018/11/21,13:37,35-14.15N,139-46.24E,179,18.6,32.692
441,2018/11/21,13:38,35-13.92N,139-46.24E,180,18.72,32.7556
442,2018/11/21,13:39,35-13.69N,139-46.24E,179,18.769,32.8305
443,2018/11/21,13:40,35-13.46N,139-46.24E,180,18.759,32.8716
444,2018/11/21,13:41,35-13.23N,139-46.24E,179,18.652,32.8483
445,2018/11/21,13:42,35-13.00N,139-46.24E,179,18.552,32.7966
446,2018/11/21,13:43,35-12.77N,139-46.24E,182,18.6,32.737
447,2018/11/21,13:44,35-12.53N,139-46.19E,193,18.542,32.6879
448,2018/11/21,13:45,35-12.28N,139-46.11E,194,18.552,32.6477
449,2018/11/21,13:46,35-12.00N,139-46.02E,193,18.642,32.6577
450,2018/11/21,13:47,35-11.71N,139-45.93E,194,18.695,32.7204
451,2018/11/21,13:48,35-11.42N,139-45.84E,194,18.765,32.7958
452,2018/11/21,13:49,35-11.11N,139-45.74E,195,18.909,32.8607
453,2018/11/21,13:50,35-10.80N,139-45.64E,195,18.985,32.9745
454,2018/11/21,13:51,35-10.49N,139-45.53E,195,19.069,33.031
455,2018/11/21,13:52,35-10.17N,139-45.42E,195,19.13,33.1009
456,2018/11/21,13:53,35-09.86N,139-45.31E,195,19.248,33.1665
457,2018/11/21,13:54,35-09.54N,139-45.20E,195,19.322,33.2943
458,2018/11/21,13:55,35-09.22N,139-45.09E,195,19.34,33.3612
459,2018/11/21,13:56,35-08.91N,139-44.99E,195,19.538,33.3661
460,2018/11/21,13:57,35-08.59N,139-44.88E,195,20.72,33.4144
461,2018/11/21,13:58,35-08.27N,139-44.76E,196,20.822,33.8097
462,2018/11/21,13:59,35-07.96N,139-44.65E,196,20.97,33.9655
463,2018/11/21,14:00,35-07.64N,139-44.53E,197,21.093,34.0516
464,2018/11/21,14:01,35-07.33N,139-44.39E,200,20.805,34.0805
465,2018/11/21,14:02,35-07.02N,139-44.24E,202,20.798,34.0349
466,2018/11/21,14:03,35-06.71N,139-44.08E,203,20.876,34.0265
467,2018/11/21,14:04,35-06.41N,139-43.92E,203,21.565,34.0398
468,2018/11/21,14:05,35-06.11N,139-43.76E,203,21.843,34.1353
469,2018/11/21,14:06,35-05.81N,139-43.61E,202,22.249,34.2452
470,2018/11/21,14:07,35-05.50N,139-43.45E,202,22.449,34.3062
471,2018/11/21,14:08,35-05.20N,139-43.30E,203,22.5,34.3519
472,2018/11/21,14:09,35-04.89N,139-43.14E,202,22.563,34.3685
473,2018/11/21,14:10,35-04.59N,139-42.99E,203,22.601,34.3781
474,2018/11/21,14:11,35-04.28N,139-42.85E,197,22.612,34.382
475,2018/11/21,14:12,35-03.97N,139-42.74E,196,22.612,34.3861
476,2018/11/21,14:13,35-03.64N,139-42.63E,195,22.619,34.3838
477,2018/11/21,14:14,35-03.33N,139-42.52E,195,22.623,34.3807
478,2018/11/21,14:15,35-03.00N,139-42.41E,195,22.605,34.3813
479,2018/11/21,14:16,35-02.69N,139-42.31E,195,22.568,34.3735
480,2018/11/21,14:17,35-02.36N,139-42.20E,195,22.517,34.3653
481,2018/11/21,14:18,35-02.04N,139-42.09E,195,22.491,34.3565
482,2018/11/21,14:19,35-01.72N,139-41.99E,195,22.46,34.3447
483,2018/11/21,14:20,35-01.39N,139-41.87E,195,22.414,34.3384
484,2018/11/21,14:21,35-01.08N,139-41.77E,194,22.352,34.3334
485,2018/11/21,14:22,35-00.75N,139-41.68E,192,22.115,34.3226
486,2018/11/21,14:23,35-00.41N,139-41.58E,193,22.117,34.279
487,2018/11/21,14:24,35-00.09N,139-41.49E,193,22.148,34.2546
488,2018/11/21,14:25,34-59.76N,139-41.39E,193,22.191,34.2562
489,2018/11/21,14:26,34-59.43N,139-41.30E,193,22.259,34.2539
490,2018/11/21,14:27,34-59.11N,139-41.22E,188,22.275,34.2642
491,2018/11/21,14:28,34-58.78N,139-41.26E,166,22.334,34.2566
492,2018/11/21,14:29,34-58.49N,139-41.43E,149,22.36,34.255
493,2018/11/21,14:30,34-58.22N,139-41.67E,143,22.382,34.2439
494,2018/11/21,14:31,34-57.96N,139-41.90E,143,22.383,34.262
495,2018/11/21,14:32,34-57.68N,139-42.14E,145,22.333,34.278
496,2018/11/21,14:33,34-57.41N,139-42.38E,144,22.135,34.2654
497,2018/11/21,14:34,34-57.13N,139-42.61E,144,22.109,34.2082
498,2018/11/21,14:35,34-56.85N,139-42.86E,144,22.179,34.1619
499,2018/11/21,14:36,34-56.58N,139-43.09E,144,22.163,34.2084
500,2018/11/21,14:37,34-56.30N,139-43.34E,144,22.125,34.2375
501,2018/11/21,14:38,34-56.02N,139-43.57E,144,22.158,34.2358
502,2018/11/21,14:39,34-55.74N,139-43.82E,144,22.158,34.2529
503,2018/11/21,14:40,34-55.47N,139-44.05E,143,22.138,34.2606
504,2018/11/21,14:41,34-55.20N,139-44.30E,143,22.127,34.2401
505,2018/11/21,14:42,34-54.93N,139-44.53E,144,22.159,34.2072
506,2018/11/21,14:43,34-54.67N,139-44.76E,144,22.184,34.2033
507,2018/11/21,14:44,34-54.40N,139-45.00E,143,22.206,34.2083
508,2018/11/21,14:45,34-54.14N,139-45.23E,144,22.238,34.2127
509,2018/11/21,14:46,34-53.87N,139-45.47E,144,22.195,34.1975
510,2018/11/21,14:47,34-53.61N,139-45.69E,144,22.189,34.1674
511,2018/11/21,14:48,34-53.35N,139-45.92E,143,22.205,34.164
512,2018/11/21,14:49,34-53.09N,139-46.15E,144,22.192,34.1789
513,2018/11/21,14:50,34-52.83N,139-46.37E,144,22.147,34.2064
514,2018/11/21,14:51,34-52.58N,139-46.60E,143,22.159,34.2038
515,2018/11/21,14:52,34-52.32N,139-46.82E,143,22.139,34.2088
516,2018/11/21,14:53,34-52.07N,139-47.05E,144,22.103,34.2119
517,2018/11/21,14:54,34-51.81N,139-47.27E,144,22.038,34.2159
518,2018/11/21,14:55,34-51.58N,139-47.50E,136,21.987,34.2139
519,2018/11/21,14:56,34-51.44N,139-47.81E,109,22.016,34.2113
520,2018/11/21,14:57,34-51.43N,139-48.16E,89,21.979,34.2219
521,2018/11/21,14:58,34-51.43N,139-48.54E,88,21.948,34.2333
522,2018/11/21,14:59,34-51.44N,139-48.90E,89,21.94,34.2282
523,2018/11/21,15:00,34-51.44N,139-49.28E,89,22.008,34.2231
524,2018/11/21,15:01,34-51.44N,139-49.65E,89,22,34.2158
525,2018/11/21,15:02,34-51.45N,139-50.03E,88,21.941,34.1882
526,2018/11/21,15:03,34-51.47N,139-50.41E,86,21.782,34.1825
527,2018/11/21,15:04,34-51.49N,139-50.79E,85,21.747,34.22
528,2018/11/21,15:05,34-51.51N,139-51.17E,86,21.809,34.2399
529,2018/11/21,15:06,34-51.52N,139-51.55E,87,21.807,34.2533
530,2018/11/21,15:07,34-51.54N,139-51.95E,86,21.809,34.2342
531,2018/11/21,15:08,34-51.56N,139-52.34E,85,21.781,34.2503
532,2018/11/21,15:09,34-51.58N,139-52.74E,85,21.83,34.2481
533,2018/11/21,15:10,34-51.61N,139-53.14E,85,21.842,34.2392
534,2018/11/21,15:11,34-51.64N,139-53.60E,84,21.819,34.2447
535,2018/11/21,15:12,34-51.68N,139-54.01E,83,21.808,34.2563
536,2018/11/21,15:13,34-51.72N,139-54.35E,83,21.844,34.258
537,2018/11/21,15:14,34-51.76N,139-54.77E,82,21.876,34.2589
538,2018/11/21,15:15,34-51.80N,139-55.16E,81,21.894,34.2561
539,2018/11/21,15:16,34-51.85N,139-55.57E,80,21.926,34.2539
540,2018/11/21,15:17,34-51.91N,139-55.98E,79,21.888,34.2513
541,2018/11/21,15:18,34-51.98N,139-56.37E,78,21.896,34.2419
542,2018/11/21,15:19,34-52.05N,139-56.78E,76,21.93,34.2229
543,2018/11/21,15:20,34-52.13N,139-57.17E,75,21.959,34.2101
544,2018/11/21,15:21,34-52.24N,139-57.61E,72,21.966,34.2043
545,2018/11/21,15:22,34-52.36N,139-58.01E,70,21.993,34.2028
546,2018/11/21,15:23,34-52.48N,139-58.39E,69,21.986,34.2035
547,2018/11/21,15:24,34-52.58N,139-58.72E,68,22,34.2009
548,2018/11/21,15:25,34-52.70N,139-59.10E,68,21.989,34.1989
549,2018/11/21,15:26,34-52.83N,139-59.49E,68,21.995,34.1973
550,2018/11/21,15:27,34-52.95N,139-59.86E,68,21.955,34.2008
551,2018/11/21,15:28,34-53.07N,140-00.25E,69,21.959,34.2027
552,2018/11/21,15:29,34-53.18N,140-00.63E,69,21.962,34.2018
553,2018/11/21,15:30,34-53.30N,140-01.00E,68,22.29,34.1978
554,2018/11/21,15:31,34-53.42N,140-01.39E,69,22.404,34.2531
555,2018/11/21,15:32,34-53.54N,140-01.76E,69,22.424,34.2992
556,2018/11/21,15:33,34-53.66N,140-02.14E,67,22.425,34.325
557,2018/11/21,15:34,34-53.79N,140-02.51E,65,22.384,34.3291
558,2018/11/21,15:35,34-53.94N,140-02.89E,64,22.31,34.3348
559,2018/11/21,15:36,34-54.10N,140-03.26E,62,22.298,34.3465
560,2018/11/21,15:37,34-54.27N,140-03.62E,59,22.232,34.3533
561,2018/11/21,15:38,34-54.48N,140-04.03E,56,22.231,34.3488
562,2018/11/21,15:39,34-54.68N,140-04.38E,55,22.15,34.3495
563,2018/11/21,15:40,34-54.88N,140-04.73E,55,22.119,34.3526
564,2018/11/21,15:41,34-55.08N,140-05.08E,55,22.14,34.3429
565,2018/11/21,15:42,34-55.26N,140-05.39E,55,22.203,34.3513
566,2018/11/21,15:43,34-55.46N,140-05.74E,55,22.034,34.3571
567,2018/11/21,15:44,34-55.65N,140-06.08E,55,21.853,34.3404
568,2018/11/21,15:45,34-55.85N,140-06.43E,55,21.81,34.2953
569,2018/11/21,15:46,34-56.05N,140-06.77E,54,21.904,34.2639
570,2018/11/21,15:47,34-56.26N,140-07.12E,54,22.201,34.2517
571,2018/11/21,15:48,34-56.45N,140-07.45E,54,22.589,34.2795
572,2018/11/21,15:49,34-56.65N,140-07.79E,54,22.866,34.3357
573,2018/11/21,15:50,34-56.84N,140-08.11E,54,23.005,34.3841
574,2018/11/21,15:51,34-57.02N,140-08.45E,55,23.105,34.4116
575,2018/11/21,15:52,34-57.21N,140-08.78E,55,23.132,34.4186
576,2018/11/21,15:53,34-57.40N,140-09.12E,56,23.109,34.4224
577,2018/11/21,15:54,34-57.58N,140-09.46E,57,23.131,34.4133
578,2018/11/21,15:55,34-57.77N,140-09.81E,57,23.166,34.4033
579,2018/11/21,15:56,34-57.95N,140-10.16E,57,23.2,34.3992
580,2018/11/21,15:57,34-58.14N,140-10.52E,58,23.235,34.3953
581,2018/11/21,15:58,34-58.31N,140-10.87E,59,23.256,34.3845
582,2018/11/21,15:59,34-58.49N,140-11.24E,59,23.272,34.3721
583,2018/11/21,16:00,34-58.66N,140-11.60E,60,23.265,34.3681
584,2018/11/21,16:01,34-58.83N,140-11.97E,60,23.264,34.3551
585,2018/11/21,16:02,34-59.00N,140-12.33E,59,23.266,34.3421
586,2018/11/21,16:03,34-59.18N,140-12.70E,60,23.232,34.3396
587,2018/11/21,16:04,34-59.35N,140-13.06E,59,23.242,34.3335
588,2018/11/21,16:05,34-59.52N,140-13.42E,60,23.258,34.3206
589,2018/11/21,16:06,34-59.69N,140-13.80E,60,23.233,34.3149
590,2018/11/21,16:07,34-59.86N,140-14.16E,59,23.239,34.3166
591,2018/11/21,16:08,35-00.03N,140-14.53E,60,23.248,34.3251
592,2018/11/21,16:09,35-00.21N,140-14.90E,60,23.265,34.334
593,2018/11/21,16:10,35-00.38N,140-15.27E,60,23.265,34.3475
594,2018/11/21,16:11,35-00.55N,140-15.64E,60,23.289,34.3558
595,2018/11/21,16:12,35-00.72N,140-16.01E,60,23.304,34.3689
596,2018/11/21,16:13,35-00.89N,140-16.39E,60,23.321,34.3813
597,2018/11/21,16:14,35-01.06N,140-16.75E,60,23.311,34.3885
598,2018/11/21,16:15,35-01.23N,140-17.12E,61,23.314,34.3911
599,2018/11/21,16:16,35-01.40N,140-17.50E,60,23.308,34.3903
600,2018/11/21,16:17,35-01.58N,140-17.87E,60,23.236,34.3951
601,2018/11/21,16:18,35-01.76N,140-18.25E,60,23.202,34.3944
602,2018/11/21,16:19,35-01.93N,140-18.62E,59,23.163,34.3895
603,2018/11/21,16:20,35-02.11N,140-18.99E,59,23.144,34.3789
604,2018/11/21,16:21,35-02.28N,140-19.34E,58,23.14,34.374
605,2018/11/21,16:22,35-02.46N,140-19.70E,58,23.16,34.372
606,2018/11/21,16:23,35-02.64N,140-20.06E,58,23.096,34.3724
607,2018/11/21,16:24,35-02.81N,140-20.42E,60,23.112,34.3649
608,2018/11/21,16:25,35-02.99N,140-20.77E,58,23.111,34.3604
609,2018/11/21,16:26,35-03.17N,140-21.13E,58,23.079,34.3625
610,2018/11/21,16:27,35-03.34N,140-21.50E,59,23.049,34.3591
611,2018/11/21,16:28,35-03.52N,140-21.85E,58,23.003,34.3595
612,2018/11/21,16:29,35-03.70N,140-22.22E,59,23.041,34.3559
613,2018/11/21,16:30,35-03.87N,140-22.57E,58,23.04,34.3569
614,2018/11/21,16:31,35-04.05N,140-22.93E,59,23.078,34.3679
615,2018/11/21,16:32,35-04.24N,140-23.29E,56,23.084,34.369
616,2018/11/21,16:33,35-04.43N,140-23.63E,54,23.051,34.3561
617,2018/11/21,16:34,35-04.65N,140-23.96E,51,23.013,34.3539
618,2018/11/21,16:35,35-04.86N,140-24.30E,51,23.012,34.3432
619,2018/11/21,16:36,35-05.07N,140-24.62E,51,22.993,34.3281
620,2018/11/21,16:37,35-05.29N,140-24.96E,52,22.903,34.3325
621,2018/11/21,16:38,35-05.50N,140-25.29E,52,22.805,34.3197
622,2018/11/21,16:39,35-05.71N,140-25.62E,50,22.73,34.3063
623,2018/11/21,16:40,35-05.93N,140-25.95E,52,22.635,34.292
624,2018/11/21,16:41,35-06.14N,140-26.28E,51,22.539,34.2912
625,2018/11/21,16:42,35-06.35N,140-26.62E,52,22.366,34.2524
626,2018/11/21,16:43,35-06.56N,140-26.94E,50,22.318,34.2176
627,2018/11/21,16:44,35-06.79N,140-27.26E,47,22.285,34.2169
628,2018/11/21,16:45,35-07.01N,140-27.56E,46,22.279,34.2263
629,2018/11/21,16:46,35-07.25N,140-27.85E,44,22.247,34.2399
630,2018/11/21,16:47,35-07.50N,140-28.15E,43,22.178,34.2427
631,2018/11/21,16:48,35-07.74N,140-28.43E,44,22.122,34.2337
632,2018/11/21,16:49,35-07.98N,140-28.72E,45,22.167,34.2085
633,2018/11/21,16:50,35-08.21N,140-29.00E,45,22.177,34.1822
634,2018/11/21,16:51,35-08.45N,140-29.29E,44,22.224,34.1741
635,2018/11/21,16:52,35-08.68N,140-29.57E,44,22.283,34.1626
636,2018/11/21,16:53,35-08.92N,140-29.84E,41,22.365,34.1557
637,2018/11/21,16:54,35-09.18N,140-30.10E,40,22.414,34.1794
638,2018/11/21,16:55,35-09.42N,140-30.36E,40,22.254,34.1633
639,2018/11/21,16:56,35-09.67N,140-30.61E,38,21.975,34.1092
640,2018/11/21,16:57,35-09.94N,140-30.84E,33,21.855,34.0706
641,2018/11/21,16:58,35-10.21N,140-31.05E,33,21.454,34.0756
642,2018/11/21,16:59,35-10.48N,140-31.27E,32,21.391,33.9853
643,2018/11/21,17:00,35-10.75N,140-31.48E,32,21.399,33.9568
644,2018/11/21,17:01,35-11.02N,140-31.69E,31,21.226,33.9876
645,2018/11/21,17:02,35-11.30N,140-31.88E,28,21.085,33.9459
646,2018/11/21,17:03,35-11.57N,140-32.07E,30,21.348,33.9071
647,2018/11/21,17:04,35-11.85N,140-32.28E,30,21.453,33.9103
648,2018/11/21,17:05,35-12.11N,140-32.47E,31,21.495,33.9544
649,2018/11/21,17:06,35-12.38N,140-32.67E,31,21.522,33.929
650,2018/11/21,17:07,35-12.64N,140-32.87E,31,21.527,33.9106
651,2018/11/21,17:08,35-12.90N,140-33.07E,32,21.523,33.8905
652,2018/11/21,17:09,35-13.16N,140-33.26E,31,21.527,33.8932
653,2018/11/21,17:10,35-13.41N,140-33.46E,32,21.545,33.93
654,2018/11/21,17:11,35-13.68N,140-33.66E,32,21.597,33.9521
655,2018/11/21,17:12,35-13.93N,140-33.85E,32,21.599,33.9848
656,2018/11/21,17:13,35-14.18N,140-34.05E,31,21.614,33.9986
657,2018/11/21,17:14,35-14.43N,140-34.24E,31,21.57,34.0288
658,2018/11/21,17:15,35-14.68N,140-34.43E,32,21.588,34.044
659,2018/11/21,17:16,35-14.92N,140-34.62E,33,21.585,34.0325
660,2018/11/21,17:17,35-15.17N,140-34.82E,32,21.604,34.0505
661,2018/11/21,17:18,35-15.42N,140-35.01E,32,21.601,34.0551
662,2018/11/21,17:19,35-15.67N,140-35.21E,32,21.595,34.0702
663,2018/11/21,17:20,35-15.91N,140-35.39E,32,21.558,34.0421
664,2018/11/21,17:21,35-16.16N,140-35.58E,32,21.537,33.9663
665,2018/11/21,17:22,35-16.42N,140-35.78E,32,21.549,33.9029
666,2018/11/21,17:23,35-16.66N,140-35.97E,32,21.506,33.8666
667,2018/11/21,17:24,35-16.92N,140-36.16E,30,21.566,33.8609
668,2018/11/21,17:25,35-17.16N,140-36.34E,31,21.571,33.8842
669,2018/11/21,17:26,35-17.42N,140-36.53E,31,21.59,33.9091
670,2018/11/21,17:27,35-17.67N,140-36.72E,31,21.568,33.9062
671,2018/11/21,17:28,35-17.93N,140-36.92E,32,21.586,33.9451
672,2018/11/21,17:29,35-18.19N,140-37.12E,31,21.532,33.9085
673,2018/11/21,17:30,35-18.44N,140-37.32E,33,21.545,33.8992
674,2018/11/21,17:31,35-18.71N,140-37.52E,32,21.613,33.8783
675,2018/11/21,17:32,35-18.96N,140-37.72E,32,21.651,33.9167
676,2018/11/21,17:33,35-19.22N,140-37.93E,33,21.699,34.0057
677,2018/11/21,17:34,35-19.48N,140-38.15E,35,21.696,34.0391
678,2018/11/21,17:35,35-19.73N,140-38.37E,35,21.731,34.0197
679,2018/11/21,17:36,35-19.99N,140-38.60E,35,21.793,34.0393
680,2018/11/21,17:37,35-20.25N,140-38.82E,35,21.792,34.1008
681,2018/11/21,17:38,35-20.50N,140-39.04E,35,21.802,34.1197
682,2018/11/21,17:39,35-20.75N,140-39.27E,35,21.788,34.1036
683,2018/11/21,17:40,35-21.01N,140-39.50E,36,21.785,34.1348
684,2018/11/21,17:41,35-21.26N,140-39.72E,36,21.831,34.1589
685,2018/11/21,17:42,35-21.52N,140-39.95E,36,21.86,34.2162
686,2018/11/21,17:43,35-21.77N,140-40.18E,35,21.877,34.255
687,2018/11/21,17:44,35-22.03N,140-40.41E,35,21.904,34.2727
688,2018/11/21,17:45,35-22.29N,140-40.63E,35,21.873,34.2687
689,2018/11/21,17:46,35-22.54N,140-40.86E,36,21.89,34.2444
690,2018/11/21,17:47,35-22.80N,140-41.10E,36,21.859,34.2185
691,2018/11/21,17:48,35-23.06N,140-41.32E,35,21.825,34.1926
692,2018/11/21,17:49,35-23.32N,140-41.56E,36,21.868,34.1853
693,2018/11/21,17:50,35-23.57N,140-41.79E,35,21.89,34.214
694,2018/11/21,17:51,35-23.84N,140-42.02E,35,21.879,34.2663
695,2018/11/21,17:52,35-24.10N,140-42.25E,36,21.911,34.2724
696,2018/11/21,17:53,35-24.36N,140-42.49E,36,21.907,34.2816
697,2018/11/21,17:54,35-24.62N,140-42.72E,36,21.857,34.2907
698,2018/11/21,17:55,35-24.88N,140-42.95E,35,21.856,34.2754
699,2018/11/21,17:56,35-25.14N,140-43.18E,35,21.797,34.256
700,2018/11/21,17:57,35-25.40N,140-43.42E,36,21.81,34.2355
701,2018/11/21,17:58,35-25.66N,140-43.66E,36,21.835,34.205
702,2018/11/21,17:59,35-25.92N,140-43.89E,35,21.857,34.2411
703,2018/11/21,18:00,35-26.19N,140-44.12E,35,21.905,34.2488
704,2018/11/21,18:01,35-26.45N,140-44.36E,36,21.936,34.2528
705,2018/11/21,18:02,35-26.72N,140-44.60E,36,21.96,34.2914
706,2018/11/21,18:03,35-26.98N,140-44.83E,36,21.943,34.2961
707,2018/11/21,18:04,35-27.24N,140-45.07E,36,21.933,34.2783
708,2018/11/21,18:05,35-27.50N,140-45.31E,36,21.912,34.2836
709,2018/11/21,18:06,35-27.76N,140-45.55E,37,21.777,34.2773
710,2018/11/21,18:07,35-28.02N,140-45.78E,36,21.72,34.2648
711,2018/11/21,18:08,35-28.28N,140-46.03E,36,21.624,34.2488
712,2018/11/21,18:09,35-28.54N,140-46.27E,37,21.558,34.2441
713,2018/11/21,18:10,35-28.80N,140-46.51E,36,21.501,34.2415
714,2018/11/21,18:11,35-29.06N,140-46.75E,36,21.292,34.2387
715,2018/11/21,18:12,35-29.32N,140-46.98E,36,21.179,34.2108
716,2018/11/21,18:13,35-29.57N,140-47.22E,37,21.011,34.1773
717,2018/11/21,18:14,35-29.82N,140-47.46E,39,20.994,34.1575
718,2018/11/21,18:15,35-30.06N,140-47.70E,39,21.007,34.1423
719,2018/11/21,18:16,35-30.30N,140-47.94E,38,21.008,34.1418
720,2018/11/21,18:17,35-30.55N,140-48.19E,38,21.007,34.1389
721,2018/11/21,18:18,35-30.78N,140-48.42E,39,20.988,34.1324
722,2018/11/21,18:19,35-31.02N,140-48.66E,39,20.938,34.1207
723,2018/11/21,18:20,35-31.26N,140-48.91E,39,20.932,34.1217
724,2018/11/21,18:21,35-31.49N,140-49.15E,39,20.942,34.1275
725,2018/11/21,18:22,35-31.73N,140-49.40E,39,20.939,34.1337
726,2018/11/21,18:23,35-31.97N,140-49.63E,38,20.917,34.1469
727,2018/11/21,18:24,35-32.22N,140-49.87E,37,20.832,34.1434
728,2018/11/21,18:25,35-32.46N,140-50.10E,37,20.844,34.143
729,2018/11/21,18:26,35-32.70N,140-50.33E,38,20.838,34.1552